Location: Unspecified
(0.0000°N, 0.0000°E)
Time: 03:12:12
(UTC+00:00)

ISS - Pass Details

Date: 10 February 2026
Orbit: 413 x 428 km, 51.6° (Epoch: 18 February)

Event Time Altitude Azimuth Distance (km) Brightness Sun altitude
Exits shadow 05:10:05 17° 343° (NNW) 1,119 -1.9 -15.5°
Drops below altitude 10° 05:11:20 10° 0° (N) 1,481 -1.1 -15.2°
Sets 05:13:41 0° 16° (NNE) 2,336 0.1 -14.7°
